Year,Month,Day,Hour,Minute,Value (Times are PST for temperature in C)
2015,11,17,00,00,8.80
2015,11,17,00,01,8.80
2015,11,17,00,02,8.90
2015,11,17,00,03,8.90
2015,11,17,00,04,8.90
2015,11,17,00,05,8.90
2015,11,17,00,06,8.90
2015,11,17,00,07,8.90
2015,11,17,00,08,8.90
2015,11,17,00,09,8.90
2015,11,17,00,10,8.90
2015,11,17,00,11,8.90
2015,11,17,00,12,8.90
2015,11,17,00,13,8.90
2015,11,17,00,14,8.90
2015,11,17,00,15,8.90
2015,11,17,00,16,8.90
2015,11,17,00,17,8.90
2015,11,17,00,18,8.90
2015,11,17,00,19,8.90
2015,11,17,00,20,9.00
2015,11,17,00,21,9.00
2015,11,17,00,22,9.00
2015,11,17,00,23,9.00
2015,11,17,00,24,9.00
2015,11,17,00,25,9.00
2015,11,17,00,26,9.10
2015,11,17,00,27,9.10
2015,11,17,00,28,9.10
2015,11,17,00,29,9.10
2015,11,17,00,30,9.10
2015,11,17,00,31,9.10
2015,11,17,00,32,9.10
2015,11,17,00,33,9.10
2015,11,17,00,34,9.10
2015,11,17,00,35,9.10
2015,11,17,00,36,9.10
2015,11,17,00,37,9.10
2015,11,17,00,38,9.10
2015,11,17,00,39,9.10
2015,11,17,00,40,9.10
2015,11,17,00,41,9.10
2015,11,17,00,42,9.20
2015,11,17,00,43,9.20
2015,11,17,00,44,9.20
2015,11,17,00,45,9.20
2015,11,17,00,46,9.20
2015,11,17,00,47,9.20
2015,11,17,00,48,9.30
2015,11,17,00,49,9.30
2015,11,17,00,50,9.30
2015,11,17,00,51,9.30
2015,11,17,00,52,9.30
2015,11,17,00,53,9.40
2015,11,17,00,54,9.40
2015,11,17,00,55,9.40
2015,11,17,00,56,9.40
2015,11,17,00,57,9.50
2015,11,17,00,58,9.50
2015,11,17,00,59,9.50
2015,11,17,01,00,9.50
2015,11,17,01,01,9.60
2015,11,17,01,02,9.60
2015,11,17,01,03,9.60
2015,11,17,01,04,9.70
2015,11,17,01,05,9.70
2015,11,17,01,06,9.70
2015,11,17,01,07,9.80
2015,11,17,01,08,9.80
2015,11,17,01,09,9.80
2015,11,17,01,10,9.80
2015,11,17,01,11,9.80
2015,11,17,01,12,9.80
2015,11,17,01,13,9.80
2015,11,17,01,14,9.80
2015,11,17,01,15,9.90
2015,11,17,01,16,9.80
2015,11,17,01,17,9.80
2015,11,17,01,18,9.80
2015,11,17,01,19,9.80
2015,11,17,01,20,9.80
2015,11,17,01,21,9.80
2015,11,17,01,22,9.90
2015,11,17,01,23,9.90
2015,11,17,01,24,9.90
2015,11,17,01,25,9.90
2015,11,17,01,26,9.90
2015,11,17,01,27,9.90
2015,11,17,01,28,9.90
2015,11,17,01,29,9.90
2015,11,17,01,30,9.90
2015,11,17,01,31,9.90
2015,11,17,01,32,9.90
2015,11,17,01,33,9.90
2015,11,17,01,34,9.80
2015,11,17,01,35,9.80
2015,11,17,01,36,9.90
2015,11,17,01,37,9.90
2015,11,17,01,38,9.90
2015,11,17,01,39,10.00
2015,11,17,01,40,10.00
2015,11,17,01,41,10.00
2015,11,17,01,42,10.00
2015,11,17,01,43,10.00
2015,11,17,01,44,10.00
2015,11,17,01,45,10.00
2015,11,17,01,46,10.00
2015,11,17,01,47,10.00
2015,11,17,01,48,10.00
2015,11,17,01,49,10.00
2015,11,17,01,50,10.00
2015,11,17,01,51,9.90
2015,11,17,01,52,9.90
2015,11,17,01,53,9.90
2015,11,17,01,54,9.90
2015,11,17,01,55,9.90
2015,11,17,01,56,9.90
2015,11,17,01,57,9.90
2015,11,17,01,58,9.90
2015,11,17,01,59,9.90
2015,11,17,02,00,9.90
2015,11,17,02,01,9.90
2015,11,17,02,02,9.90
2015,11,17,02,03,9.90
2015,11,17,02,04,9.90
2015,11,17,02,05,9.80
2015,11,17,02,06,9.80
2015,11,17,02,07,9.70
2015,11,17,02,08,9.60
2015,11,17,02,09,9.50
2015,11,17,02,10,9.30
2015,11,17,02,11,9.00
2015,11,17,02,12,8.80
2015,11,17,02,13,8.60
2015,11,17,02,14,8.40
2015,11,17,02,15,8.30
2015,11,17,02,16,8.20
2015,11,17,02,17,8.10
2015,11,17,02,18,8.00
2015,11,17,02,19,7.90
2015,11,17,02,20,7.80
2015,11,17,02,21,7.70
2015,11,17,02,22,7.70
2015,11,17,02,23,7.70
2015,11,17,02,24,7.60
2015,11,17,02,25,7.60
2015,11,17,02,26,7.60
2015,11,17,02,27,7.50
2015,11,17,02,28,7.50
2015,11,17,02,29,7.50
2015,11,17,02,30,7.50
2015,11,17,02,31,7.50
2015,11,17,02,32,7.40
2015,11,17,02,33,7.40
2015,11,17,02,34,7.40
2015,11,17,02,35,7.40
2015,11,17,02,36,7.40
2015,11,17,02,37,7.40
2015,11,17,02,38,7.40
2015,11,17,02,39,7.40
2015,11,17,02,40,7.40
2015,11,17,02,41,7.40
2015,11,17,02,42,7.40
2015,11,17,02,43,7.40
2015,11,17,02,44,7.40
2015,11,17,02,45,7.40
2015,11,17,02,46,7.40
2015,11,17,02,47,7.40
2015,11,17,02,48,7.40
2015,11,17,02,49,7.40
2015,11,17,02,50,7.40
2015,11,17,02,51,7.40
2015,11,17,02,52,7.40
2015,11,17,02,53,7.40
2015,11,17,02,54,7.40
2015,11,17,02,55,7.50
2015,11,17,02,56,7.50
2015,11,17,02,57,7.50
2015,11,17,02,58,7.50
2015,11,17,02,59,7.50
2015,11,17,03,00,7.60
2015,11,17,03,01,7.60
2015,11,17,03,02,7.60
2015,11,17,03,03,7.60
2015,11,17,11,04,7.60
2015,11,17,11,05,7.70
2015,11,17,11,06,7.70
2015,11,17,11,07,7.70
2015,11,17,11,08,7.70
2015,11,17,11,09,7.70
2015,11,17,11,10,7.70
2015,11,17,11,11,7.70
2015,11,17,11,12,7.80
2015,11,17,11,13,7.80
2015,11,17,11,14,7.80
2015,11,17,11,15,7.80
2015,11,17,11,16,7.80
2015,11,17,11,17,7.80
2015,11,17,11,18,7.80
2015,11,17,11,19,7.90
2015,11,17,11,20,7.90
2015,11,17,11,21,7.90
2015,11,17,11,22,8.00
2015,11,17,11,23,8.00
2015,11,17,11,24,8.00
2015,11,17,11,25,8.00
2015,11,17,11,26,8.00
2015,11,17,11,27,8.10
2015,11,17,11,28,8.10
2015,11,17,11,29,8.10
2015,11,17,11,30,8.10
2015,11,17,11,31,8.20
2015,11,17,11,32,8.40
2015,11,17,11,33,8.40
2015,11,17,11,34,8.40
2015,11,17,11,35,8.40
2015,11,17,11,36,8.40
2015,11,17,11,37,8.50
2015,11,17,11,38,8.50
2015,11,17,11,39,8.60
2015,11,17,11,40,8.70
2015,11,17,11,41,8.80
2015,11,17,11,42,8.90
2015,11,17,11,43,9.00
2015,11,17,11,44,9.00
2015,11,17,11,45,9.10
2015,11,17,11,46,9.20
2015,11,17,11,47,9.20
2015,11,17,11,48,9.20
2015,11,17,11,49,9.30
2015,11,17,11,50,9.30
2015,11,17,11,51,9.30
2015,11,17,11,52,9.40
2015,11,17,11,53,9.40
2015,11,17,11,54,9.40
2015,11,17,11,55,9.40
2015,11,17,11,56,9.40
2015,11,17,11,57,9.50
2015,11,17,11,58,9.50
2015,11,17,11,59,9.50
2015,11,17,12,00,9.50
2015,11,17,12,01,9.50
2015,11,17,12,02,9.50
2015,11,17,12,03,9.50
2015,11,17,12,04,9.50
2015,11,17,12,05,9.60
2015,11,17,12,06,9.60
2015,11,17,12,07,9.60
2015,11,17,12,08,9.60
2015,11,17,12,09,9.60
2015,11,17,12,10,9.60
2015,11,17,12,11,9.60
2015,11,17,12,12,9.70
2015,11,17,12,13,9.70
2015,11,17,12,14,9.70
2015,11,17,12,15,9.70
2015,11,17,12,16,9.70
2015,11,17,12,17,9.60
2015,11,17,12,18,9.50
2015,11,17,12,19,9.40
2015,11,17,12,20,9.20
2015,11,17,12,21,9.00
2015,11,17,12,22,8.90
2015,11,17,12,23,8.70
2015,11,17,12,24,8.60
2015,11,17,12,25,8.50
2015,11,17,12,26,8.40
2015,11,17,12,27,8.30
2015,11,17,12,28,8.20
2015,11,17,12,29,8.20
2015,11,17,12,30,8.20
2015,11,17,12,31,8.10
2015,11,17,12,32,8.10
2015,11,17,12,33,8.10
2015,11,17,12,34,8.10
2015,11,17,12,35,8.10
2015,11,17,12,36,8.00
2015,11,17,12,37,8.00
2015,11,17,12,38,8.00
2015,11,17,12,39,8.00
2015,11,17,12,40,7.90
2015,11,17,12,41,8.00
2015,11,17,12,42,8.00
2015,11,17,12,43,8.00
2015,11,17,12,44,8.00
2015,11,17,12,45,8.10
2015,11,17,12,46,8.10
2015,11,17,12,47,8.10
2015,11,17,12,48,8.10
2015,11,17,12,49,8.10
2015,11,17,12,50,8.20
2015,11,17,12,51,8.20
2015,11,17,12,52,8.20
2015,11,17,12,53,8.20
2015,11,17,12,54,8.20
2015,11,17,12,55,8.20
2015,11,17,12,56,8.20
2015,11,17,12,57,8.10
2015,11,17,12,58,8.10
2015,11,17,12,59,8.10
2015,11,17,13,00,8.10
2015,11,17,13,01,8.10
2015,11,17,13,02,8.10
2015,11,17,13,03,8.10
2015,11,17,13,04,8.10
2015,11,17,13,05,8.10
2015,11,17,13,06,8.10
2015,11,17,13,07,8.00
2015,11,17,13,08,8.00
2015,11,17,13,09,8.00
2015,11,17,13,10,7.90
2015,11,17,13,11,7.90
2015,11,17,13,12,7.90
2015,11,17,13,13,7.90
2015,11,17,13,14,7.90
2015,11,17,13,15,7.90
2015,11,17,13,16,7.90
2015,11,17,13,17,7.90
2015,11,17,13,18,7.90
2015,11,17,13,19,7.90
2015,11,17,13,20,7.90
2015,11,17,13,21,7.80
2015,11,17,13,22,7.80
2015,11,17,13,23,7.80
2015,11,17,13,24,7.80
2015,11,17,13,25,7.80
2015,11,17,13,26,7.80
2015,11,17,13,27,7.80
2015,11,17,13,28,7.80
2015,11,17,13,29,7.80
2015,11,17,13,30,7.80
2015,11,17,13,31,7.80
2015,11,17,13,32,7.80
2015,11,17,13,33,7.80
2015,11,17,13,34,7.80
2015,11,17,13,35,7.80
2015,11,17,13,36,7.80
2015,11,17,13,37,7.80
2015,11,17,13,38,7.80
2015,11,17,13,39,7.80
2015,11,17,13,40,7.70
2015,11,17,13,41,7.70
2015,11,17,13,42,7.60
2015,11,17,13,43,7.60
2015,11,17,13,44,7.60
2015,11,17,13,45,7.50
2015,11,17,13,46,7.50
2015,11,17,13,47,7.40
2015,11,17,13,48,7.40
2015,11,17,13,49,7.40
2015,11,17,13,50,7.40
2015,11,17,13,51,7.30
2015,11,17,13,52,7.30
2015,11,17,13,53,7.30
2015,11,17,13,54,7.20
2015,11,17,13,55,7.20
2015,11,17,13,56,7.20
2015,11,17,13,57,7.20
2015,11,17,13,58,7.10
2015,11,17,13,59,7.10
2015,11,17,14,00,7.10
2015,11,17,14,01,7.10
2015,11,17,14,02,7.00
2015,11,17,14,03,7.00
2015,11,17,14,04,6.90
2015,11,17,14,05,6.90
2015,11,17,14,06,6.90
2015,11,17,14,07,6.90
2015,11,17,14,08,6.90
2015,11,17,14,09,6.90
2015,11,17,14,10,6.90
2015,11,17,14,11,6.90
2015,11,17,14,12,6.80
2015,11,17,14,13,6.80
2015,11,17,14,14,6.80
2015,11,17,14,15,6.80
2015,11,17,14,16,6.80
2015,11,17,14,17,6.80
2015,11,17,14,18,6.80
2015,11,17,14,19,6.80
2015,11,17,14,20,6.90
2015,11,17,14,21,6.90
2015,11,17,14,22,6.90
2015,11,17,14,23,6.90
2015,11,17,14,24,6.90
2015,11,17,14,25,6.90
2015,11,17,14,26,7.00
2015,11,17,14,27,7.00
2015,11,17,14,28,7.00
2015,11,17,14,29,7.10
2015,11,17,14,30,7.10
2015,11,17,14,31,7.10
2015,11,17,14,32,7.20
2015,11,17,14,33,7.20
2015,11,17,14,34,7.20
2015,11,17,14,35,7.20
2015,11,17,14,36,7.20
2015,11,17,14,37,7.20
2015,11,17,14,38,7.20
2015,11,17,14,39,7.20
2015,11,17,14,40,7.20
2015,11,17,14,41,7.20
2015,11,17,14,42,7.20
2015,11,17,14,43,7.20
2015,11,17,14,44,7.20
2015,11,17,14,45,7.10
2015,11,17,14,46,7.10
2015,11,17,14,47,7.10
2015,11,17,14,48,7.10
2015,11,17,14,49,7.10
2015,11,17,14,50,7.10
2015,11,17,14,51,7.10
2015,11,17,14,52,7.00
2015,11,17,14,53,7.00
2015,11,17,14,54,7.00
2015,11,17,14,55,7.00
2015,11,17,14,56,7.00
2015,11,17,14,57,7.00
2015,11,17,14,58,7.00
2015,11,17,14,59,7.00
2015,11,17,15,00,7.00
2015,11,17,15,01,7.00
2015,11,17,15,02,7.10
2015,11,17,15,03,7.10
2015,11,17,15,04,7.10
2015,11,17,15,05,7.10
2015,11,17,15,06,7.10
2015,11,17,15,07,7.10
2015,11,17,15,08,7.10
2015,11,17,15,09,7.10
2015,11,17,15,10,7.10
2015,11,17,15,11,7.10
2015,11,17,15,12,7.10
2015,11,17,15,13,7.10
2015,11,17,15,14,7.10
2015,11,17,15,15,7.10
2015,11,17,15,16,7.10
2015,11,17,15,17,7.10
2015,11,17,15,18,7.00
2015,11,17,15,19,7.00
2015,11,17,15,20,7.00
2015,11,17,15,21,7.00
2015,11,17,15,22,7.00
2015,11,17,15,23,7.00
2015,11,17,15,24,7.00
2015,11,17,15,25,7.00
2015,11,17,15,26,6.90
2015,11,17,15,27,6.90
2015,11,17,15,28,6.90
2015,11,17,15,29,6.90
2015,11,17,15,30,6.90
2015,11,17,15,31,6.90
2015,11,17,15,32,6.90
2015,11,17,15,33,6.90
2015,11,17,15,34,6.90
2015,11,17,15,35,6.90
2015,11,17,15,36,6.90
2015,11,17,15,37,6.90
2015,11,17,15,38,6.90
2015,11,17,15,39,6.90
2015,11,17,15,40,6.90
2015,11,17,15,41,6.90
2015,11,17,15,42,6.90
2015,11,17,15,43,6.80
2015,11,17,15,44,6.80
2015,11,17,15,45,6.80
2015,11,17,15,46,6.80
2015,11,17,15,47,6.70
2015,11,17,15,48,6.70
2015,11,17,15,49,6.70
2015,11,17,15,50,6.70
2015,11,17,15,51,6.70
2015,11,17,15,52,6.70
2015,11,17,15,53,6.60
2015,11,17,15,54,6.60
2015,11,17,15,55,6.60
2015,11,17,15,56,6.60
2015,11,17,15,57,6.60
2015,11,17,15,58,6.50
2015,11,17,15,59,6.40
2015,11,17,16,00,6.40
2015,11,17,16,01,6.40
2015,11,17,16,02,6.30
2015,11,17,16,03,6.30
2015,11,17,16,04,6.30
2015,11,17,16,05,6.30
2015,11,17,16,06,6.30
2015,11,17,16,07,6.30
2015,11,17,16,08,6.30
2015,11,17,16,09,6.30
2015,11,17,16,10,6.30
2015,11,17,16,11,6.30
2015,11,17,16,12,6.30
2015,11,17,16,13,6.30
2015,11,17,16,14,6.30
2015,11,17,16,15,6.30
2015,11,17,16,16,6.30
2015,11,17,16,17,6.30
2015,11,17,16,18,6.30
2015,11,17,16,19,6.30
2015,11,17,16,20,6.30
2015,11,17,16,21,6.30
2015,11,17,16,22,6.20
2015,11,17,16,23,6.20
2015,11,17,16,24,6.20
2015,11,17,16,25,6.20
2015,11,17,16,26,6.20
2015,11,17,16,27,6.20
2015,11,17,16,28,6.10
2015,11,17,16,29,6.10
2015,11,17,16,30,6.10
2015,11,17,16,31,6.10
2015,11,17,16,32,6.10
2015,11,17,16,33,6.10
2015,11,17,16,34,6.10
2015,11,17,16,35,6.00
2015,11,17,16,36,6.00
2015,11,17,16,37,6.00
2015,11,17,16,38,6.00
2015,11,17,16,39,5.90
2015,11,17,16,40,5.90
2015,11,17,16,41,5.90
2015,11,17,16,42,5.90
2015,11,17,16,43,5.80
2015,11,17,16,44,5.80
2015,11,17,16,45,5.80
2015,11,17,16,46,5.80
2015,11,17,16,47,5.80
2015,11,17,16,48,5.70
2015,11,17,16,49,5.70
2015,11,17,16,50,5.70
2015,11,17,16,51,5.60
2015,11,17,16,52,5.60
2015,11,17,16,53,5.60
2015,11,17,16,54,5.50
2015,11,17,16,55,5.50
2015,11,17,16,56,5.40
2015,11,17,16,57,5.40
2015,11,17,16,58,5.40
2015,11,17,16,59,5.40
2015,11,17,17,00,5.30
2015,11,17,17,01,5.30
2015,11,17,17,02,5.30
2015,11,17,17,03,5.20
2015,11,17,17,04,5.20
2015,11,17,17,05,5.20
2015,11,17,17,06,5.20
2015,11,17,17,07,5.10
2015,11,17,17,08,5.10
2015,11,17,17,09,5.10
2015,11,17,17,10,5.00
2015,11,17,17,11,5.00
2015,11,17,17,12,4.90
2015,11,17,17,13,4.90
2015,11,17,17,14,4.90
2015,11,17,17,15,4.90
2015,11,17,17,16,4.80
2015,11,17,17,17,4.80
2015,11,17,17,18,4.80
2015,11,17,17,19,4.80
2015,11,17,17,20,4.80
2015,11,17,17,21,4.70
2015,11,17,17,22,4.70
2015,11,17,17,23,4.70
2015,11,17,17,24,4.70
2015,11,17,17,25,4.60
2015,11,17,17,26,4.60
2015,11,17,17,27,4.60
2015,11,17,17,28,4.60
2015,11,17,17,29,4.60
2015,11,17,17,30,4.50
2015,11,17,17,31,4.50
2015,11,17,17,32,4.50
2015,11,17,17,33,4.50
2015,11,17,17,34,4.40
2015,11,17,17,35,4.40
2015,11,17,17,36,4.40
2015,11,17,17,37,4.40
2015,11,17,17,38,4.40
2015,11,17,17,39,4.30
2015,11,17,17,40,4.30
2015,11,17,17,41,4.30
2015,11,17,17,42,4.30
2015,11,17,17,43,4.30
2015,11,17,17,44,4.30
2015,11,17,17,45,4.30
2015,11,17,17,46,4.30
2015,11,17,17,47,4.20
2015,11,17,17,48,4.20
2015,11,17,17,49,4.20
2015,11,17,17,50,4.20
2015,11,17,17,51,4.20
2015,11,17,17,52,4.10
2015,11,17,17,53,4.10
2015,11,17,17,54,4.10
2015,11,17,17,55,4.10
2015,11,17,17,56,4.10
2015,11,17,17,57,4.10
2015,11,17,17,58,4.00
2015,11,17,17,59,4.00
2015,11,17,18,00,4.00
2015,11,17,18,01,4.00
2015,11,17,18,02,4.00
2015,11,17,18,03,3.90
2015,11,17,18,04,3.90
2015,11,17,18,05,3.90
2015,11,17,18,06,3.90
2015,11,17,18,07,3.90
2015,11,17,18,08,3.90
2015,11,17,18,09,3.90
2015,11,17,18,10,3.90
2015,11,17,18,11,3.90
2015,11,17,18,12,3.80
2015,11,17,18,13,3.80
2015,11,17,18,14,3.80
2015,11,17,18,15,3.80
2015,11,17,18,16,3.80
2015,11,17,18,17,3.80
2015,11,17,18,18,3.80
2015,11,17,18,19,3.80
2015,11,17,18,20,3.90
2015,11,17,18,21,3.90
2015,11,17,18,22,3.90
2015,11,17,18,23,3.90
2015,11,17,18,24,3.90
2015,11,17,18,25,3.90
2015,11,17,18,26,3.90
2015,11,17,18,27,3.90
2015,11,17,18,28,3.90
2015,11,17,18,29,3.90
2015,11,17,18,30,3.90
2015,11,17,18,31,3.90
2015,11,17,18,32,3.90
2015,11,17,18,33,4.00
2015,11,17,18,34,4.00
2015,11,17,18,35,4.00
2015,11,17,18,36,4.00
2015,11,17,18,37,4.00
2015,11,17,18,38,4.00
2015,11,17,18,39,4.00
2015,11,17,18,40,4.00
2015,11,17,18,41,4.00
2015,11,17,18,42,4.00
2015,11,17,18,43,4.00
2015,11,17,18,44,4.00
2015,11,17,18,45,4.00
2015,11,17,18,46,3.90
2015,11,17,18,47,3.90
2015,11,17,18,48,3.90
2015,11,17,18,49,3.90
2015,11,17,18,50,3.90
2015,11,17,18,51,3.90
2015,11,17,18,52,3.90
2015,11,17,18,53,3.90
2015,11,17,18,54,3.90
2015,11,17,18,55,3.90
2015,11,17,18,56,3.90
2015,11,17,18,57,3.90
2015,11,17,18,58,3.90
2015,11,17,18,59,3.90
2015,11,17,19,00,3.90
2015,11,17,19,01,3.90
2015,11,17,19,02,3.90
2015,11,17,19,03,3.90
2015,11,17,19,04,3.90
2015,11,17,19,05,3.90
2015,11,17,19,06,3.90
2015,11,17,19,07,3.90
2015,11,17,19,08,3.90
2015,11,17,19,09,3.90
2015,11,17,19,10,3.80
2015,11,17,19,11,3.80
2015,11,17,19,12,3.80
2015,11,17,19,13,3.80
2015,11,17,19,14,3.80
2015,11,17,19,15,3.80
2015,11,17,19,16,3.80
2015,11,17,19,17,3.70
2015,11,17,19,18,3.70
2015,11,17,19,19,3.70
2015,11,17,19,20,3.70
2015,11,17,19,21,3.70
2015,11,17,19,22,3.70
2015,11,17,19,23,3.60
2015,11,17,19,24,3.60
2015,11,17,19,25,3.60
2015,11,17,19,26,3.60
2015,11,17,19,27,3.60
2015,11,17,19,28,3.60
2015,11,17,19,29,3.60
2015,11,17,19,30,3.60
2015,11,17,19,31,3.60
2015,11,17,19,32,3.60
2015,11,17,19,33,3.60
2015,11,17,19,34,3.60
2015,11,17,19,35,3.60
2015,11,17,19,36,3.60
2015,11,17,19,37,3.60
2015,11,17,19,38,3.50
2015,11,17,19,39,3.50
2015,11,17,19,40,3.50
2015,11,17,19,41,3.50
2015,11,17,19,42,3.50
2015,11,17,19,43,3.50
2015,11,17,19,44,3.40
2015,11,17,19,45,3.40
2015,11,17,19,46,3.40
2015,11,17,19,47,3.40
2015,11,17,19,48,3.40
2015,11,17,19,49,3.40
2015,11,17,19,50,3.40
2015,11,17,19,51,3.40
2015,11,17,19,52,3.40
2015,11,17,19,53,3.40
2015,11,17,19,54,3.40
2015,11,17,19,55,3.40
2015,11,17,19,56,3.40
2015,11,17,19,57,3.40
2015,11,17,19,58,3.40
2015,11,17,19,59,3.40
2015,11,17,20,00,3.40
2015,11,17,20,01,3.40
2015,11,17,20,02,3.40
2015,11,17,20,03,3.40
2015,11,17,20,04,3.40
2015,11,17,20,05,3.40
2015,11,17,20,06,3.40
2015,11,17,20,07,3.40
2015,11,17,20,08,3.40
2015,11,17,20,09,3.40
2015,11,17,20,10,3.40
2015,11,17,20,11,3.40
2015,11,17,20,12,3.40
2015,11,17,20,13,3.40
2015,11,17,20,14,3.30
2015,11,17,20,15,3.30
2015,11,17,20,16,3.30
2015,11,17,20,17,3.30
2015,11,17,20,18,3.30
2015,11,17,20,19,3.30
2015,11,17,20,20,3.30
2015,11,17,20,21,3.20
2015,11,17,20,22,3.20
2015,11,17,20,23,3.20
2015,11,17,20,24,3.20
2015,11,17,20,25,3.20
2015,11,17,20,26,3.20
2015,11,17,20,27,3.20
2015,11,17,20,28,3.10
2015,11,17,20,29,3.10
2015,11,17,20,30,3.10
2015,11,17,20,31,3.10
2015,11,17,20,32,3.10
2015,11,17,20,33,3.10
2015,11,17,20,34,3.00
2015,11,17,20,35,3.00
2015,11,17,20,36,3.00
2015,11,17,20,37,3.00
2015,11,17,20,38,3.00
2015,11,17,20,39,3.00
2015,11,17,20,40,2.90
2015,11,17,20,41,2.90
2015,11,17,20,42,2.90
2015,11,17,20,43,2.90
2015,11,17,20,44,2.90
2015,11,17,20,45,2.90
2015,11,17,20,46,2.90
2015,11,17,20,47,2.90
2015,11,17,20,48,2.90
2015,11,17,20,49,2.80
2015,11,17,20,50,2.80
2015,11,17,20,51,2.80
2015,11,17,20,52,2.80
2015,11,17,20,53,2.80
2015,11,17,20,54,2.80
2015,11,17,20,55,2.80
2015,11,17,20,56,2.80
2015,11,17,20,57,2.80
2015,11,17,20,58,2.80
2015,11,17,20,59,2.80
2015,11,17,21,00,2.80
2015,11,17,21,01,2.80
2015,11,17,21,02,2.80
2015,11,17,21,03,2.80
2015,11,17,21,04,2.80
2015,11,17,21,05,2.80
2015,11,17,21,06,2.70
2015,11,17,21,07,2.70
2015,11,17,21,08,2.70
2015,11,17,21,09,2.70
2015,11,17,21,10,2.70
2015,11,17,21,11,2.70
2015,11,17,21,12,2.70
2015,11,17,21,13,2.70
2015,11,17,21,14,2.70
2015,11,17,21,15,2.70
2015,11,17,21,16,2.70
2015,11,17,21,17,2.70
2015,11,17,21,18,2.70
2015,11,17,21,19,2.70
2015,11,17,21,20,2.70
2015,11,17,21,21,2.70
2015,11,17,21,22,2.70
2015,11,17,21,23,2.60
2015,11,17,21,24,2.60
2015,11,17,21,25,2.60
2015,11,17,21,26,2.60
2015,11,17,21,27,2.70
2015,11,17,21,28,2.70
2015,11,17,21,29,2.70
2015,11,17,21,30,2.70
2015,11,17,21,31,2.70
2015,11,17,21,32,2.70
2015,11,17,21,33,2.70
2015,11,17,21,34,2.70
2015,11,17,21,35,2.70
2015,11,17,21,36,2.70
2015,11,17,21,37,2.70
2015,11,17,21,38,2.70
2015,11,17,21,39,2.70
2015,11,17,21,40,2.70
2015,11,17,21,41,2.70
2015,11,17,21,42,2.70
2015,11,17,21,43,2.70
2015,11,17,21,44,2.70
2015,11,17,21,45,2.70
2015,11,17,21,46,2.70
2015,11,17,21,47,2.70
2015,11,17,21,48,2.70
2015,11,17,21,49,2.70
2015,11,17,21,50,2.70
2015,11,17,21,51,2.80
2015,11,17,21,52,2.80
2015,11,17,21,53,2.80
2015,11,17,21,54,2.80
2015,11,17,21,55,2.80
2015,11,17,21,56,2.80
2015,11,17,21,57,2.80
2015,11,17,21,58,2.80
2015,11,17,21,59,2.80
2015,11,17,22,00,2.80
2015,11,17,22,01,2.80
2015,11,17,22,02,2.80
2015,11,17,22,03,2.80
2015,11,17,22,04,2.80
2015,11,17,22,05,2.80
2015,11,17,22,06,2.80
2015,11,17,22,07,2.80
2015,11,17,22,08,2.80
2015,11,17,22,09,2.90
2015,11,17,22,10,2.90
2015,11,17,22,11,2.90
2015,11,17,22,12,2.90
2015,11,17,22,13,2.90
2015,11,17,22,14,2.90
2015,11,17,22,15,3.00
2015,11,17,22,16,3.00
2015,11,17,22,17,3.00
2015,11,17,22,18,3.10
2015,11,17,22,19,3.10
2015,11,17,22,20,3.10
2015,11,17,22,21,3.20
2015,11,17,22,22,3.20
2015,11,17,22,23,3.20
2015,11,17,22,24,3.30
2015,11,17,22,25,3.30
2015,11,17,22,26,3.30
2015,11,17,22,27,3.30
2015,11,17,22,28,3.40
2015,11,17,22,29,3.50
2015,11,17,22,30,3.50
2015,11,17,22,31,3.60
2015,11,17,22,32,3.60
2015,11,17,22,33,3.60
2015,11,17,22,34,3.70
2015,11,17,22,35,3.70
2015,11,17,22,36,3.70
2015,11,17,22,37,3.60
2015,11,17,22,38,3.60
2015,11,17,22,39,3.60
2015,11,17,22,40,3.60
2015,11,17,22,41,3.60
2015,11,17,22,42,3.60
2015,11,17,22,43,3.60
2015,11,17,22,44,3.60
2015,11,17,22,45,3.50
2015,11,17,22,46,3.50
2015,11,17,22,47,3.60
2015,11,17,22,48,3.60
2015,11,17,22,49,3.60
2015,11,17,22,50,3.60
2015,11,17,22,51,3.60
2015,11,17,22,52,3.60
2015,11,17,22,53,3.60
2015,11,17,22,54,3.60
2015,11,17,22,55,3.60
2015,11,17,22,56,3.60
2015,11,17,22,57,3.60
2015,11,17,22,58,3.70
2015,11,17,22,59,3.70
2015,11,17,23,00,3.70
2015,11,17,23,01,3.70
2015,11,17,23,02,3.70
2015,11,17,23,03,3.70
2015,11,17,23,04,3.70
2015,11,17,23,05,3.70
2015,11,17,23,06,3.70
2015,11,17,23,07,3.70
2015,11,17,23,08,3.70
2015,11,17,23,09,3.70
2015,11,17,23,10,3.70
2015,11,17,23,11,3.70
2015,11,17,23,12,3.60
2015,11,17,23,13,3.70
2015,11,17,23,14,3.60
2015,11,17,23,15,3.60
2015,11,17,23,16,3.70
2015,11,17,23,17,3.70
2015,11,17,23,18,3.70
2015,11,17,23,19,3.70
2015,11,17,23,20,3.60
2015,11,17,23,21,3.60
2015,11,17,23,22,3.60
2015,11,17,23,23,3.60
2015,11,17,23,24,3.60
2015,11,17,23,25,3.60
2015,11,17,23,26,3.60
2015,11,17,23,27,3.60
2015,11,17,23,28,3.70
2015,11,17,23,29,3.70
2015,11,17,23,30,3.70
2015,11,17,23,31,3.70
2015,11,17,23,32,3.70
2015,11,17,23,33,3.60
2015,11,17,23,34,3.60
2015,11,17,23,35,3.60
2015,11,17,23,36,3.60
2015,11,17,23,37,3.60
2015,11,17,23,38,3.60
2015,11,17,23,39,3.60
2015,11,17,23,40,3.60
2015,11,17,23,41,3.60
2015,11,17,23,42,3.50
2015,11,17,23,43,3.50
2015,11,17,23,44,3.50
2015,11,17,23,45,3.50
2015,11,17,23,46,3.50
2015,11,17,23,47,3.50
2015,11,17,23,48,3.50
2015,11,17,23,49,3.40
2015,11,17,23,50,3.40
2015,11,17,23,51,3.40
2015,11,17,23,52,3.40
2015,11,17,23,53,3.40
2015,11,17,23,54,3.40
2015,11,17,23,55,3.40
2015,11,17,23,56,3.40
2015,11,17,23,57,3.30
2015,11,17,23,58,3.30
2015,11,17,23,59,3.30
